Regional Weather Roundup
Issued by NWS Newport/Morehead, NC

Current Version | Previous Version | Graphics & Text | Print | Product List | Glossary Off
Versions: 1 2 3 4 5 6 7 8 9 10 11 12 13 14 15 16 17 18 19 20 21 22 23 24 25 26 27 28 29 30 31 32 33 34 35 36 37 38 39 40 41 42 43 44 45 46 47 48 49 50

000
ASUS42 KMHX 200813
RWRMHX
WEATHER ROUNDUP FOR EASTERN NORTH CAROLINA
NATIONAL WEATHER SERVICE NEWPORT/MOREHEAD CITY NC
400 AM EDT WED SEP 20 2017

NOTE: "FAIR" INDICATES FEW OR NO CLOUDS BELOW 12,000 FEET
WITH NO SIGNIFICANT WEATHER AND/OR OBSTRUCTIONS TO VISIBILITY

NCZ015>017-031-032-045>047-102-103-200900-
NORTH COAST

CITY           SKY/WX    TMP DP  RH WIND       PRES   REMARKS
EDENTON        CLEAR     71  66  84 CALM      29.92R
ELIZABETH CITY CLOUDY    70  68  93 W8        29.89S
KITTY HAWK     CLOUDY    71  67  85 CALM      29.87S
MANTEO         CLOUDY    73  68  86 NW5       29.88S

$$

NCZ045>047-081-094-103-104-200900-
CENTRAL COAST

CITY           SKY/WX    TMP DP  RH WIND       PRES   REMARKS
FRISCO         CLEAR     75  70  84 NW8       29.90R

$$

NCZ095-097-098-100-101-200900-
SOUTHERN COAST

CITY           SKY/WX    TMP DP  RH WIND       PRES   REMARKS
BEAUFORT       CLEAR     71  68  90 W5        29.94R
CEDAR ISLAND   NOT AVBL
JACKSONVILLE   CLEAR     68  67  96 W6        29.94S
PINEY ISLAND     N/A    N/A N/A N/A W7        29.92R
WILMINGTON     CLEAR     69  67  93 CALM      29.96R


$$

NCZ011>013-027>030-043-044-078>080-089-090>093-098-200900-
COASTAL PLAIN

CITY           SKY/WX    TMP DP  RH WIND       PRES   REMARKS
AHOSKIE          N/A     65  64  99 CALM      29.93S
CLINTON        CLEAR     65  65 100 CALM      29.96S
ELIZABETHTOWN  NOT AVBL
GOLDSBORO      CLEAR     66  66 100 CALM      29.93S
GREENVILLE     PTCLDY    64  64 100 CALM      29.95S
HAVELOCK       CLEAR     69  67  93 W3        29.95R
KENANSVILLE    CLEAR     64  63  94 CALM      29.95S
KINSTON        CLEAR     64  63  95 CALM      29.95S
NEW BERN       CLEAR     68  66  93 W3        29.95R
RICHLANDS      CLEAR     64  63  96 SW3       29.96R
ROCKY MOUNT    FOG       62  62 100 CALM      29.95S VSB 1
WASHINGTON     CLEAR     67  65  94 W3        29.93S
WHITEVILLE     CLEAR     66  65  96 CALM      29.96S

$$

AMZ130-135-150-152-154-156-158-170-250-252-270-ANZ085-086-088-633-658-670-200900-
MARINE OBSERVATIONS

STATION/POSITION TIME  TEMP    WIND        PRES    WAVE   SWELL
                       AIR SEA DIR/SP/G            HT/PER HT/PER
                 (UTC) (F)     (DEG/KT/KT) (MB)    (FT/S) (FT/S)
CHESAPEAKE LIGHT NOT AVBL
64 E VA BEACH    0750   70 70  310/ 14/ 16 1009.9   11/11  10/11
DUCK             0748   73 74  300/  8/ 11 1011.3
2 E DUCK         0800      74                N/A     7/11   3/11
OREGON INLET     0742   73 73  280/  9/ 11 1011.6
13E OREGON INLT  0748      74                N/A     9/10   8/10
HATTERAS CG      0748   75 75  300/ 13/ 17 1012.3
DIAMOND BUOY     0750   75 74  290/ 10/ 14 1011.9    6/11   7/11
CAPE LOOKOUT     0800   76     270/  7/  8 1013.4
BEAUFORT LAB     0748   74 74  310/  3/  5 1013.0
30 SE NEW RVR IN 0708   79     280/  8/ 12 1013.6
30 SE NEW RVR IN NOT AVBL
27 SE WRIGHTSVLE 0708   79 79  270/ 10/ 12 1014.0
5 SE WRIGHTSVLE  0708   76 78  310/ 12/ 16 1013.7
225 S CAPE HAT   0750   79 79  280/  6/  8 1014.4    8/11   8/11
41 SE CHARLESTON 0800   80 82  250/  8/ 10 1014.6

$$



USA.gov is the U.S. government's official web portal to all federal, state and local government web resources and services.